Meath Environmental Platform

Observations for Trim Patrick St

Time AQI Temp °C Hum % Pres Pa CO μg/m³ H₂S μg/m³ NO μg/m³ NO₂ μg/m³ O₃ μg/m³ SO₂ μg/m³ PM1 μg/m³ PM2.5 μg/m³ PM10 μg/m³
Sunday 2 August 2026
16:06 3 24.5 40 68,963 0 13.21 1.03 24.19 84.21 8.73 3.71 9.4 10.34
16:04 3 24.6 40 68,935 0 7.45 1 15.72 77.32 7.84 3.71 8.6 9.46
16:03 3 24.7 40 68,959 0 8.18 1.01 15.09 78.34 9.37 2.86 8.64 9.5
16:02 3 24.8 39 68,963 0 4.97 0.94 15.55 74.82 7.79 2.86 7.87 8.65
16:01 3 24.8 40 68,971 0 9.32 0.93 19.44 79.37 8.97 2.86 8.63 9.5
16:00 3 24.9 40 68,951 0 6.39 0.94 15 71.3 8.54 3.71 8.63 9.49
15:59 3 25 40 68,951 0 14.6 0.93 26.85 78.64 9.71 2.86 8.59 9.45
15:57 3 25.2 40 68,979 0 15.87 0.94 21.14 74.73 9.79 3.71 10.2 11.22
15:56 3 25.3 40 68,955 0 15.97 0.96 26.37 106.07 9.77 2.86 8.63 9.5
15:55 3 25.4 39 68,983 0 15.7 0.95 26.13 83.12 9.84 3.71 9.44 10.38
15:54 3 25.5 39 68,961 0 15.27 0.97 30.55 109.8 10.52 2.86 8.67 9.53
15:53 3 25.5 39 68,991 0 14.74 0.97 23.05 78.52 9.34 2.86 8.69 9.56
15:52 3 25.6 39 69,002 0 13.94 0.97 34.71 98.72 10.26 2.86 8.67 9.53
15:51 3 25.7 38 68,987 0 12.34 0.98 20.21 101.69 10.01 3.71 9.5 10.45
15:50 3 25.8 38 68,989 0 13.16 0.97 20.6 115.62 10.1 2.86 9.52 10.47
15:49 3 25.8 38 68,993 0 8.31 1.01 22.66 84.99 9.13 2.86 8.75 9.62
15:48 3 25.9 38 69,027 0 9.93 1.04 20.2 86.65 9.81 3.71 8.76 9.64
15:47 3 25.9 38 69,010 0 6.5 1.15 20.36 88.93 8.99 3.71 9.57 10.53
15:46 3 26 38 69,025 0 6.23 1.08 21.6 83.35 9.14 2 7.97 8.77
15:45 3 26 37 69,041 0 7.13 1.13 18.08 75.4 9.41 2.86 9.59 10.55